Prague, Czech Republic

1:01 PM CEST on June 25, 2017 (GMT +0200)
Ruzyne

Weather History for LKPR - March, 2013

Change the Weather History Date:

Friday, March 29, 2013

  Actual Average Record
Temperature  
Mean Temperature 35 °F -  
Max Temperature 41 °F 56 °F 64 °F (2017)
Min Temperature 29 °F 36 °F 26 °F (2011)
Degree Days  
Heating Degree Days 30    
Moisture  
Dew Point 27 °F    
Average Humidity 78    
Maximum Humidity 100    
Minimum Humidity 47    
Precipitation  
Precipitation 0.00 in 0.05 in - ()
Sea Level Pressure  
Sea Level Pressure 29.68 in    
Wind  
Wind Speed 9 mph ()    
Max Wind Speed 24 mph    
Max Gust Speed -    
Visibility 4.3 miles    
Events Rain , Snow    
Averages and records for this station are not official NWS values.
T = Trace of Precipitation, MM = Missing Value Source: Averaged Metar Reports

Daily Weather History Graph

Daily Weather History Graph

Search for Another Location

Airport or City:

Trip Planner

Search our weather history database for the weather conditions in past years. The results will help you decide how hot, cold, wet, or windy it might be!

Date:

Astronomy

Mar. 29, 2013 Rise Set
Actual Time 5:45 AM CET 6:30 PM CET
Civil Twilight 5:13 AM CET 7:02 PM CET
Nautical Twilight 4:34 AM CET 7:42 PM CET
Astronomical Twilight 3:53 AM CET 8:23 PM CET
Moon 9:30 PM CET (3/29) 6:26 AM CET (3/29)
Length of Visible Light 13h 49m
Length of Day
12h 44m
Waning Gibbous, 95% of the Moon is Illuminated
Mar 29
Waning Gibbous
Apr 3
Last Quarter
Apr 10
New
Apr 18
First Quarter
Apr 25
Full

Hourly Weather History & Observations

Time (CET) Temp. Windchill Dew Point Humidity Pressure Visibility Wind Dir Wind Speed Gust Speed Precip Events Conditions
12:00 AM 33.8 °F 26.4 °F 26.6 °F 75% 29.71 in 6.2 mi ESE 9.2 mph - N/A Snow Light Snow
12:30 AM 32.0 °F 23.6 °F 28.4 °F 87% 29.71 in 5.0 mi ESE 10.4 mph - N/A Snow Light Snow
1:00 AM 33 °F - 27 °F 72% 29.78 in 6 mi ESE 8.9 mph - - Snow Light Snow
1:00 AM 32.0 °F 25.6 °F 26.6 °F 80% 29.71 in 6.2 mi SE 6.9 mph - N/A   Overcast
1:30 AM 32.0 °F 24.2 °F 26.6 °F 80% 29.71 in 6.2 mi SE 9.2 mph - N/A Snow Light Snow
1:38 AM 32.0 °F 24.8 °F 26.6 °F 80% 29.71 in 2.5 mi SE 8.1 mph - N/A Snow Light Snow
1:46 AM 32.0 °F 24.8 °F 28.4 °F 87% 29.71 in 1.6 mi SE 8.1 mph - N/A Snow Snow
2:00 AM 32.0 °F 24.8 °F 28.4 °F 87% 29.68 in 1.9 mi SE 8.1 mph - N/A Snow Light Snow
2:30 AM 30.2 °F 21.9 °F 28.4 °F 93% 29.68 in 1.9 mi ESE 9.2 mph - N/A Snow Light Snow
3:00 AM 30.2 °F 23.4 °F 28.4 °F 93% 29.68 in 1.5 mi SE 6.9 mph - N/A Snow Snow
3:30 AM 30.2 °F 24.3 °F 30.2 °F 100% 29.65 in 1.1 mi SSE 5.8 mph - N/A Snow Snow
4:00 AM 30.2 °F 24.3 °F 30.2 °F 100% 29.65 in 2.2 mi SSE 5.8 mph - N/A Snow Light Snow
4:30 AM 30.2 °F 24.3 °F 30.2 °F 100% 29.65 in 2.8 mi SSE 5.8 mph - N/A Snow Light Snow
5:00 AM 30.2 °F 22.6 °F 28.4 °F 93% 29.65 in 3.1 mi South 8.1 mph - N/A   Overcast
5:30 AM 30.2 °F 25.4 °F 30.2 °F 100% 29.65 in 3.1 mi SSE 4.6 mph - N/A   Overcast
5:40 AM 30.2 °F 23.4 °F 30.2 °F 100% 29.65 in 2.2 mi SE 6.9 mph - N/A   Overcast
5:50 AM 30.2 °F 24.3 °F 30.2 °F 100% 29.65 in - SSE 5.8 mph - N/A   Overcast
6:00 AM 30.2 °F 24.3 °F 30.2 °F 100% 29.65 in 1.9 mi SSE 5.8 mph - N/A   Overcast
6:30 AM 30.2 °F 23.4 °F 30.2 °F 100% 29.65 in 1.7 mi SSE 6.9 mph - N/A Snow Light Snow
7:00 AM 31 °F - 30 °F 93% 29.72 in 2 mi SSW 6.7 mph - - Snow Light Snow
7:00 AM 30.2 °F 23.4 °F 30.2 °F 100% 29.65 in 2.2 mi SSW 6.9 mph - N/A   Mostly Cloudy
7:30 AM 30.2 °F 23.4 °F 30.2 °F 100% 29.65 in 2.5 mi SSW 6.9 mph - N/A   Mostly Cloudy
8:00 AM 30.2 °F 23.4 °F 28.4 °F 93% 29.65 in - SSW 6.9 mph - N/A   Partly Cloudy
8:30 AM 33.8 °F 23.9 °F 30.2 °F 87% 29.65 in 3.1 mi SW 15.0 mph - N/A   Partly Cloudy
9:00 AM 33.8 °F 24.3 °F 30.2 °F 87% 29.68 in 3.7 mi SW 13.8 mph - N/A   Partly Cloudy
9:30 AM 35.6 °F 26.2 °F 30.2 °F 81% 29.68 in 3.7 mi SW 15.0 mph - N/A   Scattered Clouds
10:00 AM 35.6 °F 26.6 °F 28.4 °F 75% 29.68 in 4.3 mi SW 13.8 mph - N/A   Partly Cloudy
10:30 AM 37.4 °F 27.5 °F 30.2 °F 75% 29.68 in 5.6 mi SW 18.4 mph - N/A   Partly Cloudy
10:36 AM 35.6 °F 24.8 °F 28.4 °F 75% 29.68 in 5.0 mi WSW 19.6 mph - N/A Rain , Snow Light Rain Showers
10:41 AM 35.6 °F 25.5 °F 28.4 °F 75% 29.68 in 2.5 mi WSW 17.3 mph - N/A Rain , Snow Rain Showers
10:43 AM 35.6 °F 25.5 °F 28.4 °F 75% 29.68 in 1.9 mi WSW 17.3 mph - N/A Snow Snow Showers
10:49 AM 35.6 °F 25.9 °F 28.4 °F 75% 29.68 in 2.5 mi WSW 16.1 mph - N/A Snow Light Snow Showers
10:53 AM 37.4 °F 27.8 °F 32.0 °F 81% 29.68 in 3.1 mi WSW 17.3 mph - N/A Snow Light Snow Showers
11:00 AM 37.4 °F 27.8 °F 32.0 °F 81% 29.68 in 4.3 mi West 17.3 mph - N/A   Scattered Clouds
11:30 AM 37.4 °F 26.9 °F 30.2 °F 75% 29.68 in 6.2 mi WSW 20.7 mph - N/A   Mostly Cloudy
12:00 PM 35.6 °F 25.2 °F 26.6 °F 70% 29.68 in 6.2 mi WSW 18.4 mph - N/A   Scattered Clouds
12:30 PM 39.2 °F 28.5 °F 24.8 °F 56% 29.68 in 6.2 mi WSW 24.2 mph - N/A   Partly Cloudy
1:00 PM 38 °F - 25 °F 47% 29.73 in 9 mi WSW 17.9 mph - -   Partly Cloudy
1:00 PM 37.4 °F 27.8 °F 24.8 °F 60% 29.68 in 6.2 mi WSW 17.3 mph - N/A   Mostly Cloudy
1:30 PM 39.2 °F 30.8 °F 24.8 °F 56% 29.68 in 6.2 mi West 15.0 mph - N/A   Mostly Cloudy
2:00 PM 37.4 °F 28.9 °F 24.8 °F 60% 29.68 in 6.2 mi West 13.8 mph - N/A   Mostly Cloudy
2:30 PM 39.2 °F 29.8 °F 24.8 °F 56% 29.65 in 6.2 mi WSW 18.4 mph - N/A   Mostly Cloudy
3:00 PM 39.2 °F 31.2 °F 24.8 °F 56% 29.65 in 6.2 mi West 13.8 mph - N/A   Mostly Cloudy
3:30 PM 37.4 °F 27.5 °F 23.0 °F 56% 29.65 in 6.2 mi West 18.4 mph - N/A   Mostly Cloudy
4:00 PM 37.4 °F 29.8 °F 21.2 °F 52% 29.65 in 6.2 mi West 11.5 mph - N/A   Mostly Cloudy
4:30 PM 37.4 °F 29.3 °F 23.0 °F 56% 29.65 in 6.2 mi West 12.7 mph - N/A   Mostly Cloudy
5:00 PM 37.4 °F 30.3 °F 23.0 °F 56% 29.65 in 6.2 mi WSW 10.4 mph - N/A   Mostly Cloudy
5:30 PM 35.6 °F 29.2 °F 23.0 °F 60% 29.65 in 6.2 mi West 8.1 mph - N/A   Mostly Cloudy
6:00 PM 35.6 °F 29.2 °F 24.8 °F 65% 29.68 in 6.2 mi West 8.1 mph - N/A   Mostly Cloudy
6:30 PM 33.8 °F 27.0 °F 23.0 °F 65% 29.68 in 5.6 mi West 8.1 mph - N/A   Unknown
7:00 PM 33 °F - 25 °F 63% 29.75 in 5 mi West 6.7 mph - -   Mist
7:00 PM 32.0 °F 25.6 °F 24.8 °F 75% 29.68 in 5.0 mi West 6.9 mph - N/A   Mostly Cloudy
7:30 PM 32.0 °F 25.6 °F 24.8 °F 75% 29.68 in 5.0 mi WSW 6.9 mph - N/A   Mostly Cloudy
8:00 PM 33.8 °F 28.6 °F 24.8 °F 70% 29.68 in 5.0 mi West 5.8 mph - N/A   Mostly Cloudy
8:30 PM 33.8 °F 28.6 °F 24.8 °F 70% 29.68 in 5.0 mi West 5.8 mph - N/A   Mostly Cloudy
9:00 PM 32.0 °F 27.5 °F 24.8 °F 75% 29.71 in 4.3 mi NNW 4.6 mph - N/A   Mostly Cloudy
9:30 PM 32.0 °F - 24.8 °F 75% 29.71 in 4.3 mi North 2.3 mph - N/A   Mostly Cloudy
10:01 PM 32.0 °F - 24.8 °F 75% 29.71 in 4.3 mi North 2.3 mph - N/A   Unknown
10:30 PM 32.0 °F - 24.8 °F 75% 29.71 in 4.3 mi North 2.3 mph - N/A   Partly Cloudy
11:00 PM 30.2 °F - 23.0 °F 75% 29.71 in 4.3 mi NNE 2.3 mph - N/A   Partly Cloudy
11:30 PM 30.2 °F 26.7 °F 24.8 °F 80% 29.68 in 4.3 mi ENE 3.5 mph - N/A   Unknown